Location: Meadowbank Aerodrome
(65.0250°N, 96.0705°W)
Time: 09:58:07
(UTC-06:00)

Cosmos 2221 - Visible Passes

Search period start: 27 November 2014 00:00
Search period end: 07 December 2014 00:00
Orbit: 598 x 621 km, 82.5° (Epoch: 26 November)

Date Brightness Start Highest point End Pass type
(mag) Time Alt. Az. Time Alt. Az. Time Alt. Az.
27 Nov 5.0 18:58:52 10° N 18:59:27 12° N 18:59:27 12° N visible
27 Nov 5.4 20:36:15 10° NNW 20:36:24 11° NNW 20:36:24 11° NNW visible
28 Nov 5.0 19:13:05 10° N 19:13:40 12° N 19:13:40 12° N visible
28 Nov 5.5 20:50:34 10° NNW 20:50:37 10° NNW 20:50:37 10° NNW visible
29 Nov 4.8 17:50:22 10° N 17:50:55 11° NNE 17:50:55 11° NNE visible
29 Nov 5.0 19:27:20 10° N 19:27:52 13° N 19:27:52 13° N visible
30 Nov 4.8 18:04:24 10° N 18:05:08 12° NNE 18:05:08 12° NNE visible
30 Nov 5.1 19:41:35 10° N 19:42:05 13° N 19:42:05 13° N visible
01 Dec 4.8 18:18:32 10° N 18:19:20 13° N 18:19:20 13° N visible
01 Dec 5.2 19:55:51 10° NNW 19:56:17 13° N 19:56:17 13° N visible
02 Dec 5.2 08:41:17 10° E 08:43:14 13° ENE 08:45:12 10° NE visible
02 Dec 4.8 18:32:43 10° N 18:33:33 13° N 18:33:33 13° N visible
02 Dec 5.3 20:10:08 10° NNW 20:10:30 12° NNW 20:10:30 12° NNW visible
03 Dec 4.7 17:10:13 10° N 17:10:49 10° NNE 17:10:49 10° NNE visible
03 Dec 4.8 18:46:55 10° N 18:47:46 14° N 18:47:46 14° N visible
03 Dec 5.4 20:24:26 10° NNW 20:24:43 12° NNW 20:24:43 12° NNW visible
04 Dec 4.7 17:24:04 10° N 17:25:03 12° NNE 17:25:03 12° NNE visible
04 Dec 4.8 19:01:09 10° N 19:02:00 14° N 19:02:00 14° N visible
04 Dec 5.5 20:38:45 10° NNW 20:38:56 11° NNW 20:38:56 11° NNW visible
05 Dec 4.6 17:38:08 10° N 17:39:16 13° NNE 17:39:16 13° NNE visible
05 Dec 4.8 19:15:23 10° N 19:16:13 15° N 19:16:13 15° N visible
05 Dec 5.6 20:53:06 10° NNW 20:53:10 10° NNW 20:53:10 10° NNW visible
06 Dec 5.5 08:01:39 10° E 08:02:54 11° ENE 08:04:09 10° NE visible
06 Dec 4.6 17:52:16 10° N 17:53:30 14° NNE 17:53:30 14° NNE visible
06 Dec 4.9 19:29:39 10° NNW 19:30:27 15° N 19:30:27 15° N visible
